Sturgis, MI

3:37 PM EDT on July 26, 2017 (GMT -0400)
Kirsch Municipal

Weather History for KIRS - January, 2013

Change the Weather History Date:

Tuesday, January 29, 2013

  Actual Average (KHAI) Record (KHAI)
Temperature  
Mean Temperature 47 °F -  
Max Temperature 57 °F 32 °F 57 °F (2013)
Min Temperature 37 °F 15 °F -10 °F (1977)
Degree Days  
Heating Degree Days 18    
Moisture  
Dew Point 51 °F    
Average Humidity 97    
Maximum Humidity 100    
Minimum Humidity 88    
Precipitation  
Precipitation 0.00 in - - ()
Sea Level Pressure  
Sea Level Pressure 29.70 in    
Wind  
Wind Speed 11 mph (South)    
Max Wind Speed 25 mph    
Max Gust Speed 32 mph    
Visibility 3 miles    
Events Fog , Rain    
Averages and records for this station are not official NWS values.
T = Trace of Precipitation, MM = Missing Value Source: NWS Daily Summary

Daily Weather History Graph

Daily Weather History Graph

Search for Another Location

Airport or City:

Trip Planner

Search our weather history database for the weather conditions in past years. The results will help you decide how hot, cold, wet, or windy it might be!

Date:

Astronomy

Jan. 29, 2013 Rise Set
Actual Time 7:56 AM EST 5:53 PM EST
Civil Twilight 7:27 AM EST 6:23 PM EST
Nautical Twilight 6:53 AM EST 6:56 PM EST
Astronomical Twilight 6:20 AM EST 7:29 PM EST
Moon 8:52 PM EST (1/29) 8:50 AM EST (1/29)
Length of Visible Light 10h 56m
Length of Day
9h 56m
Waning Gibbous, 94% of the Moon is Illuminated
Jan 29
Waning Gibbous
Feb 3
Last Quarter
Feb 10
New
Feb 17
First Quarter
Feb 25
Full

Hourly Weather History & Observations

Time (EST) Temp. Windchill Dew Point Humidity Pressure Visibility Wind Dir Wind Speed Gust Speed Precip Events Conditions
12:14 AM 37.4 °F 32.1 °F 37.4 °F 100% 29.95 in 0.5 mi East 6.9 mph - N/A Rain Light Rain
12:35 AM 37.4 °F 33.8 °F 37.4 °F 100% 29.94 in 0.5 mi East 4.6 mph - N/A Fog Fog
12:59 AM 37.4 °F 34.9 °F 37.4 °F 100% 29.93 in 0.5 mi East 3.5 mph - N/A Fog Fog
1:15 AM 37.4 °F 32.8 °F 37.4 °F 100% 29.92 in 0.5 mi ESE 5.8 mph - N/A Fog Fog
1:35 AM 39.2 °F 35.0 °F 37.4 °F 93% 29.91 in 0.5 mi East 5.8 mph - N/A Fog Fog
1:55 AM 39.2 °F 34.2 °F 39.2 °F 100% 29.91 in 0.8 mi SE 6.9 mph - N/A   Overcast
2:15 AM 41.0 °F 35.2 °F 39.2 °F 93% 29.89 in 0.5 mi SE 9.2 mph - N/A Rain Rain
2:35 AM 42.8 °F 37.0 °F 42.8 °F 100% 29.88 in 1.2 mi SE 10.4 mph - N/A Rain Heavy Rain
2:54 AM 44.6 °F 38.4 °F 42.8 °F 93% 29.89 in 0.5 mi SSE 12.7 mph 18.4 mph N/A Rain Rain
3:15 AM 48.2 °F - 48.2 °F 100% 29.87 in 4.0 mi South 10.4 mph - N/A Rain Light Rain
3:54 AM 46.4 °F 41.9 °F 46.4 °F 100% 29.84 in 2.0 mi SSE 9.2 mph - N/A   Overcast
4:15 AM 46.4 °F 41.5 °F 44.6 °F 93% 29.83 in 1.2 mi SSE 10.4 mph - N/A   Overcast
4:35 AM 46.4 °F 41.5 °F 44.6 °F 93% 29.81 in 1.0 mi SSE 10.4 mph - N/A   Overcast
5:00 AM 46.4 °F 41.9 °F 44.6 °F 93% 29.80 in 0.8 mi SSE 9.2 mph - N/A   Overcast
5:15 AM 44.6 °F 40.2 °F 44.6 °F 100% 29.79 in 0.5 mi SSE 8.1 mph - N/A Fog Fog
5:35 AM 46.4 °F 41.9 °F 44.6 °F 93% 29.79 in 0.2 mi SSE 9.2 mph - N/A Fog Fog
5:54 AM 46.4 °F 41.9 °F 46.4 °F 100% 29.78 in 0.2 mi South 9.2 mph - N/A Fog Fog
6:15 AM 51.8 °F - 51.8 °F 100% 29.78 in 1.0 mi SSW 15.0 mph - N/A   Overcast
6:35 AM 51.8 °F - 51.8 °F 100% 29.78 in 2.0 mi SSW 17.3 mph - N/A   Overcast
6:54 AM 51.8 °F - 51.8 °F 100% 29.78 in 1.8 mi SW 13.8 mph 18.4 mph N/A   Overcast
7:15 AM 51.8 °F - 51.8 °F 100% 29.78 in 2.5 mi SW 15.0 mph 23.0 mph N/A   Light Drizzle
7:35 AM 51.8 °F - 51.8 °F 100% 29.78 in 1.8 mi SW 15.0 mph 23.0 mph N/A   Overcast
7:55 AM 51.8 °F - 51.8 °F 100% 29.78 in 1.8 mi SSW 15.0 mph 20.7 mph N/A Rain Light Rain
8:15 AM 51.8 °F - 51.8 °F 100% 29.78 in 2.0 mi SSW 15.0 mph - N/A   Overcast
8:34 AM 51.8 °F - 51.8 °F 100% 29.77 in 3.0 mi SSW 12.7 mph - N/A   Overcast
8:55 AM 51.8 °F - 51.8 °F 100% 29.77 in 4.0 mi SSW 12.7 mph - N/A   Overcast
9:15 AM 53.6 °F - 51.8 °F 94% 29.77 in 5.0 mi SSW 11.5 mph - N/A   Overcast
9:34 AM 53.6 °F - 51.8 °F 94% 29.77 in 4.0 mi SSW 12.7 mph - N/A Rain Rain
10:15 AM 53.6 °F - 53.6 °F 100% 29.77 in 2.5 mi SSW 13.8 mph 18.4 mph N/A Rain Light Rain
10:34 AM 53.6 °F - 53.6 °F 100% 29.79 in 3.0 mi SW 17.3 mph 20.7 mph N/A Rain Light Rain
10:55 AM 53.6 °F - 53.6 °F 100% 29.76 in 3.0 mi SSW 13.8 mph 19.6 mph N/A Rain Heavy Rain
11:15 AM 53.6 °F - 53.6 °F 100% 29.76 in 3.0 mi SSW 13.8 mph - N/A Rain Light Rain
11:34 AM 53.6 °F - 53.6 °F 100% 29.76 in 3.0 mi SSW 13.8 mph 21.9 mph N/A Rain Rain
11:55 AM 53.6 °F - 53.6 °F 100% 29.75 in 1.8 mi SSW 15.0 mph - N/A Rain Rain
12:15 PM 53.6 °F - 53.6 °F 100% 29.75 in 2.0 mi SSW 16.1 mph 20.7 mph N/A   Overcast
12:35 PM 53.6 °F - 53.6 °F 100% 29.74 in 2.5 mi SSW 13.8 mph - N/A   Overcast
12:55 PM 53.6 °F - 53.6 °F 100% 29.73 in 1.8 mi SSW 11.5 mph 19.6 mph N/A   Overcast
1:14 PM 55.4 °F - 53.6 °F 94% 29.72 in 1.5 mi SSW 15.0 mph - N/A Rain Light Rain
1:35 PM 55.4 °F - 53.6 °F 94% 29.70 in 1.2 mi SSW 13.8 mph - N/A   Light Drizzle
1:55 PM 55.4 °F - 53.6 °F 94% 29.69 in 1.2 mi South 10.4 mph - N/A   Overcast
2:14 PM 53.6 °F - 53.6 °F 100% 29.68 in 1.2 mi South 13.8 mph - N/A   Overcast
2:35 PM 53.6 °F - 53.6 °F 100% 29.68 in 1.2 mi SSW 10.4 mph - N/A Rain Heavy Rain
2:55 PM 53.6 °F - 53.6 °F 100% 29.66 in 2.0 mi SSW 10.4 mph 16.1 mph N/A Rain Rain
3:14 PM 55.4 °F - 53.6 °F 94% 29.67 in 4.0 mi SSW 16.1 mph 21.9 mph N/A Rain Heavy Rain
3:35 PM 55.4 °F - 53.6 °F 94% 29.66 in 2.0 mi South 15.0 mph - N/A Rain Rain
3:55 PM 55.4 °F - 53.6 °F 94% 29.66 in 4.0 mi SSW 16.1 mph 21.9 mph N/A Rain Light Rain
4:14 PM 55.4 °F - 55.4 °F 100% 29.64 in 2.5 mi South 12.7 mph 19.6 mph N/A Rain Heavy Rain
4:55 PM 55.4 °F - 55.4 °F 100% 29.63 in 5.0 mi SSW 15.0 mph 20.7 mph N/A   Overcast
5:14 PM 55.4 °F - 53.6 °F 94% 29.63 in 7.0 mi South 13.8 mph - N/A   Overcast
5:35 PM 55.4 °F - 53.6 °F 94% 29.64 in 7.0 mi South 13.8 mph 23.0 mph N/A   Overcast
5:54 PM 55.4 °F - 53.6 °F 94% 29.63 in 5.0 mi South 15.0 mph 23.0 mph N/A   Overcast
6:15 PM 55.4 °F - 53.6 °F 94% 29.61 in 5.0 mi South 13.8 mph - N/A Rain Light Rain
6:35 PM 55.4 °F - 53.6 °F 94% 29.61 in 5.0 mi South 16.1 mph 23.0 mph N/A Rain Rain
6:54 PM 55.4 °F - 53.6 °F 94% 29.61 in 4.0 mi South 15.0 mph 21.9 mph N/A   Light Drizzle
7:15 PM 55.4 °F - 53.6 °F 94% 29.59 in 5.0 mi South 15.0 mph 23.0 mph N/A Rain Rain
7:35 PM 55.4 °F - 53.6 °F 94% 29.57 in 5.0 mi South 17.3 mph 21.9 mph N/A   Overcast
7:54 PM 55.4 °F - 53.6 °F 94% 29.56 in 7.0 mi South 15.0 mph 20.7 mph N/A   Overcast
8:15 PM 55.4 °F - 53.6 °F 94% 29.55 in 7.0 mi South 17.3 mph 24.2 mph N/A   Overcast
8:35 PM 55.4 °F - 53.6 °F 94% 29.54 in 7.0 mi South 16.1 mph 21.9 mph N/A   Overcast
8:54 PM 55.4 °F - 53.6 °F 94% 29.53 in 7.0 mi South 19.6 mph - N/A   Overcast
9:15 PM 57.2 °F - 53.6 °F 88% 29.51 in 10.0 mi South 17.3 mph 24.2 mph N/A   Overcast
9:35 PM 57.2 °F - 53.6 °F 88% 29.49 in 10.0 mi South 18.4 mph 25.3 mph N/A   Overcast
9:54 PM 57.2 °F - 53.6 °F 88% 29.47 in 7.0 mi South 25.3 mph 28.8 mph N/A Rain Light Rain
10:15 PM 57.2 °F - 55.4 °F 94% 29.45 in 3.0 mi South 20.7 mph 32.2 mph N/A Rain Heavy Rain
10:34 PM 57.2 °F - 55.4 °F 94% 29.43 in 10.0 mi South 18.4 mph 29.9 mph N/A   Overcast
10:55 PM 57.2 °F - 55.4 °F 94% 29.42 in 7.0 mi South 18.4 mph 26.5 mph N/A Rain Rain
11:15 PM 57.2 °F - 55.4 °F 94% 29.41 in 2.5 mi South 21.9 mph 32.2 mph N/A Rain Heavy Rain
11:34 PM 57.2 °F - 55.4 °F 94% 29.41 in 7.0 mi SSW 15.0 mph 19.6 mph N/A Rain Rain
11:55 PM 57.2 °F - 55.4 °F 94% 29.38 in 10.0 mi SSW 16.1 mph 20.7 mph N/A Rain Light Rain